| time (UTC) | temp F | wind direction | speed MPH | gust MPH | rain 1hr in | rain 24hr in | rain mn in | humidity % | barometer mb |
| 20260505211530 | 76 | 314 | 6.0 | 13.0 | 0.00 | 0.00 | 0.00 | 45 | 1013.7 |
| 20260505210031 | 76 | 316 | 6.0 | 12.0 | 0.00 | 0.00 | 0.00 | 45 | 1013.9 |
| 20260505203032 | 74 | 309 | 6.0 | 12.0 | 0.00 | 0.00 | 0.00 | 46 | 1014.1 |
| 20260505200107 | 74 | 308 | 5.0 | 9.0 | 0.00 | 0.00 | 0.00 | 47 | 1014.3 |
| 20260505194608 | 73 | 302 | 4.0 | 11.0 | 0.00 | 0.00 | 0.00 | 47 | 1014.5 |
| 20260505193029 | 72 | 313 | 5.0 | 10.0 | 0.00 | 0.00 | 0.00 | 48 | 1014.5 |
| 20260505191531 | 72 | 303 | 6.0 | 14.0 | 0.00 | 0.00 | 0.00 | 49 | 1014.6 |
| 20260505190026 | 72 | 304 | 4.0 | 11.0 | 0.00 | 0.00 | 0.00 | 49 | 1014.7 |
| 20260505184530 | 71 | 298 | 5.0 | 14.0 | 0.00 | 0.00 | 0.00 | 51 | 1014.8 |
| 20260505183030 | 71 | 301 | 5.0 | 12.0 | 0.00 | 0.00 | 0.00 | 51 | 1014.8 |
| 20260505181531 | 71 | 283 | 5.0 | 13.0 | 0.00 | 0.00 | 0.00 | 52 | 1014.8 |
| 20260505180104 | 70 | 284 | 4.0 | 10.0 | 0.00 | 0.00 | 0.00 | 53 | 1014.8 |
| 20260505173103 | 69 | 253 | 3.0 | 11.0 | 0.00 | 0.00 | 0.00 | 55 | 1014.8 |
| 20260505171525 | 69 | 263 | 3.0 | 12.0 | 0.00 | 0.00 | 0.00 | 56 | 1014.8 |
| 20260505170035 | 67 | 246 | 2.0 | 12.0 | 0.00 | 0.00 | 0.00 | 57 | 1014.8 |
| 20260505164530 | 67 | 281 | 4.0 | 12.0 | 0.00 | 0.00 | 0.00 | 58 | 1014.8 |
| 20260505161531 | 65 | 262 | 4.0 | 11.0 | 0.00 | 0.00 | 0.00 | 60 | 1014.9 |
| 20260505153030 | 63 | 277 | 3.0 | 11.0 | 0.00 | 0.00 | 0.00 | 62 | 1014.6 |
| 20260505151531 | 63 | 240 | 2.0 | 9.0 | 0.00 | 0.00 | 0.00 | 63 | 1014.6 |
| 20260505150104 | 62 | 246 | 2.0 | 11.0 | 0.00 | 0.00 | 0.00 | 64 | 1014.5 |
| 20260505124530 | 60 | 207 | 1.0 | 8.0 | 0.00 | 0.00 | 0.00 | 68 | 1013.1 |
| 20260505123031 | 60 | 222 | 2.0 | 11.0 | 0.00 | 0.00 | 0.00 | 68 | 1013.0 |
| 20260505121532 | 60 | 222 | 1.0 | 10.0 | 0.00 | 0.00 | 0.00 | 68 | 1012.9 |
| 20260505114529 | 62 | 240 | 3.0 | 12.0 | 0.00 | 0.00 | 0.00 | 66 | 1012.8 |
| 20260505113034 | 62 | 234 | 3.0 | 13.0 | 0.00 | 0.00 | 0.00 | 65 | 1012.6 |
| 20260505111532 | 62 | 267 | 4.0 | 19.0 | 0.00 | 0.00 | 0.00 | 65 | 1012.4 |
| 20260505094530 | 64 | 262 | 5.0 | 13.0 | 0.00 | 0.00 | 0.00 | 64 | 1011.8 |
| 20260505093031 | 64 | 250 | 3.0 | 16.0 | 0.00 | 0.00 | 0.00 | 64 | 1011.8 |
| 20260505091526 | 64 | 251 | 3.0 | 10.0 | 0.00 | 0.00 | 0.00 | 64 | 1011.7 |
| 20260505090031 | 65 | 257 | 2.0 | 11.0 | 0.00 | 0.00 | 0.00 | 62 | 1011.7 |
| 20260505084528 | 66 | 255 | 3.0 | 16.0 | 0.00 | 0.00 | 0.00 | 62 | 1011.6 |
| 20260505083116 | 66 | 258 | 3.0 | 11.0 | 0.00 | 0.00 | 0.00 | 61 | 1011.6 |
| 20260505081531 | 66 | 224 | 0.0 | 4.0 | 0.00 | 0.00 | 0.00 | 59 | 1011.5 |
| 20260505080029 | 67 | 257 | 2.0 | 12.0 | 0.00 | 0.00 | 0.00 | 58 | 1011.5 |
| 20260505074530 | 68 | 250 | 3.0 | 11.0 | 0.00 | 0.00 | 0.00 | 58 | 1011.3 |
| 20260505073031 | 68 | 239 | 4.0 | 14.0 | 0.00 | 0.00 | 0.00 | 58 | 1011.3 |
| 20260505071531 | 68 | 234 | 3.0 | 11.0 | 0.00 | 0.00 | 0.00 | 57 | 1011.2 |
| 20260505070031 | 68 | 230 | 3.0 | 15.0 | 0.00 | 0.00 | 0.00 | 57 | 1011.1 |
| 20260505063103 | 68 | 231 | 3.0 | 14.0 | 0.00 | 0.00 | 0.00 | 56 | 1010.9 |
| 20260505061533 | 68 | 233 | 4.0 | 10.0 | 0.00 | 0.00 | 0.00 | 55 | 1010.8 |
| 20260505060030 | 69 | 208 | 1.0 | 7.0 | 0.00 | 0.00 | 0.00 | 53 | 1010.7 |
| 20260505054536 | 69 | 237 | 2.0 | 11.0 | 0.00 | 0.00 | 0.00 | 52 | 1010.6 |
| 20260505053032 | 69 | 227 | 3.0 | 11.0 | 0.00 | 0.00 | 0.00 | 51 | 1010.6 |
| 20260505051534 | 70 | 211 | 3.0 | 10.0 | 0.00 | 0.00 | 0.00 | 50 | 1010.6 |
| 20260505050148 | 70 | 192 | 1.0 | 9.0 | 0.00 | 0.00 | 0.00 | 48 | 1010.6 |
| 20260505041606 | 72 | 178 | 3.0 | 13.0 | 0.00 | 0.00 | 0.00 | 45 | 1009.9 |
| 20260505040046 | 72 | 180 | 4.0 | 10.0 | 0.00 | 0.00 | 0.00 | 45 | 1009.6 |
| 20260505033031 | 73 | 198 | 4.0 | 11.0 | 0.00 | 0.00 | 0.00 | 45 | 1009.3 |
| 20260505031532 | 73 | 186 | 5.0 | 14.0 | 0.00 | 0.00 | 0.00 | 45 | 1009.1 |
| 20260505030032 | 74 | 187 | 4.0 | 11.0 | 0.00 | 0.00 | 0.00 | 46 | 1008.9 |
| 20260505021530 | 76 | 209 | 4.0 | 11.0 | 0.00 | 0.00 | 0.00 | 43 | 1008.7 |
| 20260505020030 | 77 | 209 | 4.0 | 10.0 | 0.00 | 0.00 | 0.00 | 41 | 1008.7 |
| 20260505014532 | 79 | 232 | 4.0 | 11.0 | 0.00 | 0.00 | 0.00 | 40 | 1008.6 |
| 20260505013106 | 80 | 230 | 3.0 | 11.0 | 0.00 | 0.00 | 0.00 | 39 | 1008.5 |
| 20260505011646 | 80 | 244 | 3.0 | 14.0 | 0.00 | 0.00 | 0.00 | 40 | 1008.5 |
| 20260505004530 | 82 | 276 | 3.0 | 17.0 | 0.00 | 0.00 | 0.00 | 37 | 1008.5 |
| 20260505003147 | 82 | 277 | 3.0 | 11.0 | 0.00 | 0.00 | 0.00 | 36 | 1008.6 |
| 20260505001531 | 83 | 254 | 2.0 | 12.0 | 0.00 | 0.00 | 0.00 | 36 | 1008.6 |
| 20260504233031 | 83 | 253 | 3.0 | 11.0 | 0.00 | 0.00 | 0.00 | 36 | 1008.7 |
| 20260504231531 | 83 | 259 | 4.0 | 14.0 | 0.00 | 0.00 | 0.00 | 37 | 1008.8 |
| 20260504230031 | 83 | 291 | 5.0 | 14.0 | 0.00 | 0.00 | 0.00 | 37 | 1009.0 |
| 20260504224533 | 83 | 273 | 4.0 | 11.0 | 0.00 | 0.00 | 0.00 | 36 | 1009.1 |
| 20260504223031 | 84 | 288 | 4.0 | 13.0 | 0.00 | 0.00 | 0.00 | 35 | 1009.3 |
| 20260504221530 | 84 | 264 | 4.0 | 13.0 | 0.00 | 0.00 | 0.00 | 35 | 1009.4 |
| 20260504220028 | 84 | 261 | 4.0 | 11.0 | 0.00 | 0.00 | 0.00 | 35 | 1009.5 |
| 20260504214644 | 83 | 285 | 4.0 | 15.0 | 0.00 | 0.00 | 0.00 | 36 | 1009.7 |
| 20260504213026 | 84 | 275 | 4.0 | 12.0 | 0.00 | 0.00 | 0.00 | 35 | 1009.9 |